Home > Weather > Campinas > Past weeks

Flag for Brazil Weather for the Past 2 Weeks in Campinas, São Paulo, Brazil

Now
79 °F

Sunny.


Feels Like: 81 °F
Forecast: 71 / 90 °F
Wind: 6 mph from Northeast

Location: Campinas Aeroporto

Current Time: Feb 10, 2016 at 9:23:59 AM

Latest Report: Feb 10, 2016 at 9:00 AM


Visibility: 10 mi

Pressure: 30.07 "Hg (27.80 "Hg at 686m altitude)

Humidity: 70%

Dew point: 68 °F

Location of CampinasLocation

Historic Weather in Campinas — Graph

°F

Campinas Temperature Yesterday

Maximum temperature yesterday: 90 °F (at 4:00 PM)
Minimum temperature yesterday: 70 °F (at 4:00 AM)
Average temperature yesterday: 79 °F

High & Low Weather Summary for the Past Weeks

 TemperatureHumidityPressure
High95 °F (Feb 2, 4:00 PM)100% (Jan 27, 7:00 PM)30.15 "Hg (Jan 27, 7:00 PM)
Low68 °F (Feb 1, 7:00 AM)24% (Jan 31, 5:00 PM)29.83 "Hg (Jan 26, 6:00 PM)
Average78 °F71%30.04 "Hg
* Reported Jan 26 8:00 AM — Feb 10 8:00 AM, Campinas, Weather by CustomWeather, © 2016

Note: Actual official high and low records may vary slightly from our data, if they occured in-between our weather recording intervals... More about our weather records

Advertising

Campinas Weather History for the Previous 24 Hours

 ConditionsComfort  
Time TempWeatherWind HumidityBarometerVisibility
8:00 AM
Wed, Feb 10
75 °FSunny.3 mph83%30.07 "Hg10 mi
7:00 AM72 °FSunny.5 mph94%30.04 "Hg10 mi
6:00 AM72 °FClear.2 mph94%30.04 "Hg10 mi
5:00 AM73 °FClear.5 mph94%30.04 "Hg10 mi
4:00 AM73 °FClear.5 mph94%30.04 "Hg10 mi
3:00 AM73 °FClear.6 mph89%30.07 "Hg10 mi
2:00 AM75 °FClear.6 mph83%30.07 "Hg10 mi
1:00 AM75 °FClear.3 mph83%30.09 "Hg10 mi
12:00 AM77 °FClear.6 mph74%30.09 "Hg10 mi
11:00 PM
Tue, Feb 9
79 °FClear.5 mph70%30.09 "Hg10 mi
10:00 PM81 °FClear.5 mph70%30.07 "Hg10 mi
9:00 PM84 °FClear.6 mph55%30.07 "Hg10 mi
8:00 PM82 °FScattered showers. Passing clouds.6 mph58%N/AN/A
7:00 PM86 °FScattered showers. Scattered clouds.6 mph52%N/AN/A
6:00 PM90 °FScattered clouds.8 mph46%30.01 "HgN/A
5:00 PM90 °FScattered clouds.9 mph43%30.01 "HgN/A
4:00 PM90 °FScattered clouds.9 mph46%30.04 "HgN/A
3:00 PM88 °FPartly sunny.12 mph49%30.09 "HgN/A
2:00 PM88 °FPartly sunny.9 mph46%30.09 "HgN/A
1:00 PM86 °FScattered clouds.10 mph52%30.12 "HgN/A
12:00 PM82 °FScattered clouds.8 mph62%30.12 "HgN/A
11:00 AM81 °FScattered clouds.7 mph70%30.15 "HgN/A
10:00 AM79 °FSunny.6 mph74%30.15 "Hg10 mi
9:00 AM77 °FPassing clouds.6 mph79%30.15 "HgN/A
Weather by CustomWeather, © 2016

See weather overviewHow to use our weather pages